P/2016 S1 ( PanSTARRS )

Japanese version
Home page
Updated on May 22, 2017

---------------------------------------------------------------------

* Profile

Discovery Date September 21, 2016
Magnitude 19.4 mag
Discoverer Pan-STARRS 1 telescope (Haleakala)

* Pictures

* Orbital Elements

Epoch 2017 Mar. 28.0 TT = JDT 2457840.5
T 2017 Mar. 16.81828 TT                                 MPCW
q   2.4119255            (2000.0)            P               Q
n   0.04134946     Peri.  273.61296     +0.01766548     -0.67753329
a   8.2823986      Node   227.54014     +0.30245797     -0.69731855
e   0.7087890      Incl.   94.69032     -0.95299901     -0.23387066
P  23.84
From 118 observations 2016 Sept. 21-2017 Apr. 15, mean residual 0".4.

* Finding Charts

* Magnitudes Graph

        m1 = 11.5 + 5 log d + 10.0 log r

---------------------------------------------------------------------

The orbital elements are published on M.P.E.C. 2017-J52.
The charts are made with StellaNavigator Ver.10 (AstroArts).
The magnitudes graphs are made with Comet for Windows.

---------------------------------------------------------------------

Copyright(C) Seiichi Yoshida (comet@aerith.net). All rights reserved.